JO-97
1 43803U 18099AX  25007.41159496  .00015311  00000-0  81642-3 0  9993
2 43803  97.4923  68.2570 0007565 327.8677  32.2093 15.15238813333538
Suomi 100
1 43804U 18099AY  25007.61637167  .00012846  00000-0  71707-3 0  9993
2 43804  97.4994  68.0946 0012847 324.4984  35.5392 15.13603429333529
ISAT
1 43879U 18111D   25007.48085008  .00024661  00000-0  11076-2 0  9996
2 43879  97.6055 279.4117 0012039  25.2042 334.9778 15.21088705330358
UWE-4
1 43880U 18111E   25007.47323031  .00020551  00000-0  98732-3 0  9997
2 43880  97.5991 278.7525 0015574  32.1454 328.0726 15.18757841330339
Sparrow
1 43881U 18111F   25007.69598160  .00027155  00000-0  11904-2 0  9991
2 43881  97.6171 282.0008 0010671  58.8396 301.3885 15.21911121328466
Prox-1
1 44339U 19036A   25007.58157049  .00018052  00000-0  26031-2 0  9995
2 44339  23.9997 342.9639 0007994 136.3325 223.7804 14.74695172295459
SONATE
1 44400U 19038Q   25007.45592700  .00058074  00000-0  90539-3 0  9992
2 44400  97.7128  19.2891 0013645  90.9796 269.3020 15.53567089305567
Taurus 1
1 44530U 19059C   25007.77415315  .00012681  00000-0  25392-2 0  9998
2 44530  98.5889 140.5323 0010213 147.7528 212.4298 14.61896504281580
Duchifat 3
1 44854U 19089C   25007.79715394  .00037694  00000-0  12314-2 0  9993
2 44854  36.9484 234.9098 0011133 357.0519   3.0166 15.30782893279409
TO-108
1 44881U 19093C   25007.77174686  .00002180  00000-0  26159-3 0  9994
2 44881  97.8101  86.5655 0014391  18.5211 341.6525 14.84966427273395
FloripaSat 1
1 44885U 19093G   25007.82094082  .00009360  00000-0  85195-3 0  9997
2 44885  97.8266  95.3986 0011250   0.4303 359.6925 14.95356466273895
RS-44
1 44909U 19096E   25007.39804255  .00000033  00000-0  95071-4 0  9993
2 44909  82.5235 329.0731 0216485 293.9231  63.9329 12.79737714235092
UPMSat 2
1 46276U 20061E   25007.65701581  .00044143  00000-0  80822-3 0  9990
2 46276  97.2691  79.1198 0001976 100.4733 259.6741 15.49207571241650
AmicalSat
1 46287U 20061R   25007.65191990  .01918547  34538-2  17786-2 0  9991
2 46287  97.2938  86.2631 0005132 291.4656  68.6082 16.13163608241357
SALSAT
1 46495U 20068K   25007.85434112  .00012868  00000-0  61852-3 0  9996
2 46495  97.8434 339.4311 0011718 340.1224  19.9551 15.18901918235310
CubeSX-Sirius-HSE
1 47951U 21022V   25007.79230390  .00065346  00000-0  13007-2 0  9997
2 47951  97.4383 273.9174 0011695 114.4910 245.7560 15.46626207209949
CubeSX-HSE
1 47952U 21022W   25007.84620228  .00064295  00000-0  12669-2 0  9992
2 47952  97.4377 274.1322 0011742 113.7351 246.5131 15.46924739209961
KSU-Cubesat
1 47954U 21022Y   25007.45920749  .00124987  00000-0  15789-2 0  9993
2 47954  97.4375 276.8876 0010935 103.4171 256.8305 15.59061741209824
GRBAlpha
1 47959U 21022AD  25007.80529019  .00063325  00000-0  12511-2 0  9990
2 47959  97.4379 274.2566 0011630 113.9018 246.3451 15.46852913208785
Orbicraft-Zorkiy
1 47960U 21022AE  25007.82739511  .00103144  00000-0  15568-2 0  9993
2 47960  97.4379 276.8301 0011019 106.7829 253.4634 15.54324808209614
TUBIN
1 48900U 21059X   25007.82766788  .00037319  00000-0  80035-3 0  9996
2 48900  97.6625 166.7185 0005478  76.7241 283.4618 15.44630830196342
LEDSAT
1 49069U 21073D   25007.62783583  .00047024  00000-0  11465-2 0  9993
2 49069  97.4118  85.1253 0013155 276.1760  83.7987 15.40659900187746
CUTE
1 49263U 21088D   25007.57687959  .00050368  00000-0  13668-2 0  9991
2 49263  97.4718  80.1556 0010849  80.4802 279.7668 15.37386562180832
TeikyoSat 4
1 49396U 21102B   25007.51243468  .00004004  00000-0  27501-3 0  9990
2 49396  97.4343  51.3844 0011318 303.0029  57.0111 15.06463096173498
Z-Sat
1 49399U 21102E   25007.81719533  .00007214  00000-0  42045-3 0  9993
2 49399  97.4046  53.9360 0017368 273.8605  86.0640 15.12158432173870
KOSEN 1
1 49402U 21102H   25007.08466573  .00012124  00000-0  61763-3 0  9994
2 49402  97.3961  55.6057 0015512 254.0384 105.9140 15.16823693173997
HO-113
1 50466U 21131B   25007.82441230  .00001317  00000-0  42854-3 0  9995
2 50466  98.5186  97.9476 0003477 223.2789 136.8127 14.40432430159453
IRIS-A
1 51044U 22002BN  25007.49714805  .00065520  00000-0  10851-2 0  9997
2 51044  97.3545  81.4567 0004500  26.4212 333.7269 15.51946607165869
Foresail-1
1 52766U 22057AL  25007.32901913  .00057069  00000-0  94745-3 0  9993
2 52766  97.5973 146.4905 0005616 119.6861 240.4950 15.51908116145873
SNUGLITE 2
1 52899U 22065F   25007.82094195  .00002839  00000-0  57022-3 0  9991
2 52899  98.1435 151.5860 0006781 227.0510 133.0124 14.62400304134152
IO-117
1 53106U 22080B   24357.45145358 -.00000003  00000-0  00000-0 0  9997
2 53106  70.1377 127.1156 0008284  64.6124 295.5392  6.42557665 57362
FO-118
1 54684U 22167C   25007.81311987  .00164413  00000-0  16354-2 0  9997
2 54684  97.6121 167.8048 0002455 140.2940 219.8499 15.65189144115851
SO-120
1 56992U 23084BU  25007.82540317  .00263131  00000-0  20580-2 0  9995
2 56992  97.5311 140.1507 0007038 334.5596  25.5319 15.70804512 87733
MRC-100
1 56993U 23084BV  25004.25947094  .12600048  25824-5  83387-3 0  9999
2 56993  97.5134 139.2748 0011223 298.8771  61.1402 16.40581581 87376
UmKA 1 (RS40S)
1 57172U 23091G   25007.79896284  .00009048  00000-0  52382-3 0  9998
2 57172  97.5843  64.0899 0016357 137.0633 223.1878 15.12348097 84363
CubeBel-2 (EU11S)
1 57175U 23091K   25007.81955119  .00013895  00000-0  75000-3 0  9994
2 57175  97.5844  64.5115 0014075 146.7330 213.4789 15.14770073 84390
VERONIKA
1 58261U 23174F   25007.79739282  .00053603  00000-0  13473-2 0  9997
2 58261  97.4362  88.7635 0007999 237.0731 122.9746 15.39757607 64976
KAFASAT
1 58317U 23174BP  25007.55264554  .00120755  00000-0  19297-2 0  9991
2 58317  97.4267  90.9049 0006161 213.3167 146.7698 15.52724073 65119
ENSO
1 58470U 23185J   25007.82457408  .00039599  00000-0  10455-2 0  9997
2 58470  97.3985  79.9998 0008502 272.9121  87.1151 15.38314608 61422
EIRSAT-1
1 58472U 23185L   25007.79930712  .00052829  00000-0  12607-2 0  9991
2 58472  97.3980  80.4524 0007941 272.5362  87.4975 15.41338491 61450
SONATE-2
1 59112U 24043Q   25007.33515862  .00021291  00000-0  77867-3 0  9991
2 59112  97.4950 136.5184 0011863 301.1838  58.8238 15.28024650 46877
MO-122
1 60209U 24125G   25007.50820367  .00022414  00000-0  81078-3 0  9996
2 60209  97.2968 221.4791 0021940 328.9348  31.0593 15.28207854 28518
GRBBeta
1 60237U 24128C   25007.23819219  .00006812  00000-0  54977-3 0  9996
2 60237  61.9924 253.2934 0034468  21.1513 339.0993 15.00296359 27170
Curium One
1 60242U 24128H   25007.05316112  .00011956  00000-0  92889-3 0  9995
2 60242  61.9827 253.8527 0034354  14.5763 345.6309 15.01228415 27150
ROBUSTA-3A
1 60243U 24128J   25007.08253707  .00012068  00000-0  94555-3 0  9996
2 60243  61.9890 254.1315 0032397  12.1240 348.0622 15.00950269 27152
CatSat
1 60246U 24125J   25007.54000796  .00018610  00000-0  71057-3 0  9996
2 60246  97.2758 222.1024 0045236 278.3962  81.2150 15.25715168 26611
CySat-1
1 61501U 98067WZ  25007.26388494  .05291961  12064-4  15121-2 0  9993
2 61501  51.6136  10.6145 0005089  60.6700 299.4829 16.26764600 14315
AO-123
1 61781U 24199AY  25007.86849648  .00013010  00000-0  52621-3 0  9999
2 61781  97.3777 237.6643 0018156  23.0655 337.1394 15.24693663 53584
